Flag for Germany Weather past 2 weeks in Eisenach, Thuringia, Germany

Now
64 °F

Passing clouds.


Feels Like: 64 °F
Forecast: 58 / 82 °F
Wind: 1 mph from Northeast

Location: Meiningen

Current Time: Jul 26, 2014 at 8:13:46 AM

Latest Report: Jul 26, 2014 at 8:00 AM


Visibility: 19 mi

Pressure: 29.90 "Hg

Humidity: 87%

Dew point: 60 °F

Location of EisenachLocation

Historic Weather in Eisenach — Graph

°F

Eisenach temperature yesterday

Maximum temperature yesterday: 72 °F (at 6:00 PM)
Minimum temperature yesterday: 58 °F (at 1:00 AM)
Average temperature yesterday: 65 °F

Past Weeks' High & Low Weather Summary

 TemperatureHumidityPressure
High87 °F (Jul 19, 5:00 PM)98% (Jul 12, 2:00 AM)30.19 "Hg (Jul 12, 2:00 AM)
Low51 °F (Jul 13, 7:00 AM)26% (Jul 19, 2:00 PM)29.76 "Hg (Jul 20, 7:00 PM)
Average67 °F69%29.95 "Hg
* Reported Jul 11 7:00 AM — Jul 26 7:00 AM, Eisenach, Weather by CustomWeather, © 2014

Note: Actual official high and low records may vary slightly from our data, if they occured in-between our weather recording intervals... More about our weather records

Advertising

Eisenach weather history for previous 24 hours

 ConditionsComfort  
Time TempWeatherWind HumidityBarometerVisibility
7:00 AM
Jul 26
59 °FFog.1 mph93%29.91 "Hg19 mi
6:00 AM57 °FFog.1 mph95%29.91 "Hg17 mi
4:00 AM59 °FClear.1 mph91%29.91 "Hg12 mi
3:00 AM61 °FPassing clouds.2 mph87%29.90 "Hg19 mi
2:00 AM61 °FPassing clouds.2 mph85%29.92 "Hg22 mi
1:00 AM60 °FPassing clouds.2 mph89%29.91 "Hg17 mi
12:00 AM62 °FPassing clouds.2 mph87%29.91 "Hg17 mi
10:00 PM
Jul 25
65 °FOvercast.2 mph78%29.89 "Hg22 mi
9:00 PM67 °FPassing clouds.2 mph72%29.88 "Hg28 mi
8:00 PM70 °FScattered clouds.3 mph61%29.86 "Hg28 mi
7:00 PM72 °FScattered clouds.3 mph56%29.85 "Hg31 mi
6:00 PM72 °FPassing clouds.2 mph54%29.86 "Hg34 mi
5:00 PM71 °FScattered clouds.3 mph58%29.86 "Hg31 mi
4:00 PM71 °FPartly sunny.3 mph59%29.88 "Hg31 mi
3:00 PM71 °FOvercast.2 mph57%29.88 "Hg28 mi
2:00 PM70 °FPartly sunny.3 mph59%29.89 "Hg28 mi
1:00 PM68 °FScattered clouds.3 mph59%29.91 "Hg25 mi
12:00 PM67 °FScattered clouds.2 mph63%29.92 "Hg22 mi
11:00 AM65 °FPartly sunny.2 mph70%29.93 "Hg19 mi
10:00 AM62 °FPartly sunny.2 mph80%29.93 "Hg16 mi
9:00 AM62 °FPartly sunny.2 mph79%29.93 "Hg11 mi
8:00 AM60 °FScattered clouds.2 mph89%29.94 "Hg7 mi
Weather by CustomWeather, © 2014

See weather overviewHow to use our weather pages